This demonstration page uses our WeatherBlox Daily Observations layout. Learn more.

38.89511, -77.03637

Hourly Observations for July 1, 2020

Temp ( °F °C ) Dew Point ( °F °C ) Humidity (%) Winds ( mph kmh ) Pressure ( in mb ) Visibility ( mi km ) Precip ( " mm )
12:52 am 00:52 Mostly Cloudy 79 26.1 66 18.9 65 65 E 6 9 29.88 1012 10 16.0934 0 0
1:52 am 01:52 Mostly Cloudy 76 24.4 66 18.9 72 72 ENE 8 13 29.88 1012 10 16.0934 0 0
2:52 am 02:52 Mostly Cloudy 76 24.4 67 19.4 74 74 NE 8 13 29.87 1011 10 16.0934 0 0
3:52 am 03:52 Cloudy 76 24.4 65 18.3 69 69 N 3 6 29.88 1012 10 16.0934 0 0
4:52 am 04:52 Cloudy with Light Rain 73 22.8 68 20 84 84 S 3 6 29.87 1011 10 16.0934 0.01 0.254
5:52 am 05:52 Mostly Cloudy 73 22.8 67 19.4 81 81 E 8 13 29.87 1012 10 16.0934 0.001 0.001
6:52 am 06:52 Mostly Cloudy 73 22.8 68 20 84 84 NE 8 13 29.88 1012 10 16.0934 0 0
7:52 am 07:52 Mostly Cloudy 74 23.3 68 20 82 82 ENE 5 7 29.89 1012 10 16.0934 0 0
8:52 am 08:52 Mostly Cloudy 76 24.4 68 20 77 77 NE 5 7 29.9 1012 10 16.0934 0 0
9:52 am 09:52 Mostly Cloudy 78 25.6 68 20 71 71 NE 7 11 29.9 1013 10 16.0934 0 0
10:52 am 10:52 Partly Cloudy 82 27.8 67 19.4 60 60 VRB 3 6 29.9 1012 10 16.0934 0 0
11:52 am 11:52 Partly Cloudy 85 29.4 68 20 57 57 NNE 6 9 29.89 1012 10 16.0934 0 0
12:52 pm 12:52 Mostly Cloudy 85 29.4 68 20 57 57 NNE 7 11 29.88 1012 10 16.0934 0 0
1:52 pm 13:52 Mostly Cloudy 85 29.4 67 19.4 55 55 NE 6 9 29.85 1011 10 16.0934 0 0
2:52 pm 14:52 Mostly Cloudy 86 30 66 18.9 51 51 N 8 13 29.84 1010 10 16.0934 0 0
3:52 pm 15:52 Partly Cloudy 85 29.4 69 20.6 59 59 ESE 13 20 29.84 1010 10 16.0934 0 0
4:52 pm 16:52 Partly Cloudy 85 29.4 69 20.6 59 59 SSE 9 15 29.83 1010 10 16.0934 0 0
5:07 pm 17:07 Mostly Cloudy with Light Rain 84 28.9 68 20 59 59 NE 12 19 29.83 1010 10 16.0934 0.001 0.001
5:12 pm 17:12 Mostly Cloudy with Light Rain 80 26.7 70 21.1 71 71 SE 12 19 29.83 1010 8 12.87472 0.03 0.762
5:23 pm 17:23 Mostly Cloudy with Light Rain 77 25 68 20 74 74 SE 10 17 29.84 1010 10 16.0934 0.11 2.794
5:35 pm 17:35 Mostly Cloudy 77 25 70 21.1 79 79 SE 9 15 29.84 1010 10 16.0934 0.11 2.794
5:52 pm 17:52 Partly Cloudy 77 25 70 21.1 79 79 E 7 11 29.83 1010 10 16.0934 0.11 2.794
6:52 pm 18:52 Mostly Sunny 80 26.7 71 21.7 74 74 S 6 9 29.83 1010 10 16.0934 0 0
7:52 pm 19:52 Mostly Sunny 78 25.6 70 21.1 76 76 S 7 11 29.85 1011 10 16.0934 0 0
8:52 pm 20:52 Mostly Clear 77 25 70 21.1 79 79 SSW 6 9 29.86 1011 10 16.0934 0 0
9:52 pm 21:52 Mostly Clear 76 24.4 69 20.6 79 79 SW 5 7 29.88 1012 10 16.0934 0 0
10:52 pm 22:52 Mostly Clear 77 25 68 20 74 74 SSW 3 6 29.89 1012 10 16.0934 0 0
11:52 pm 23:52 Mostly Clear 76 24.4 69 20.6 79 79 Calm 29.89 1012 10 16.0934 0 0

Powered by AerisWeather